N1IJV-10 Weather Reports


time (UTC)temp
C
wind
direction
speed
KPH
gust
KPH
rain 1hr
cm
rain 24hr
cm
rain mn
cm
humidity
%
barometer
mb
20260507195719 15 121 9.7 14.5 0.00 0.00 0.00 54 1009.8
20260507195216 15 156 6.4 14.5 0.00 0.00 0.00 57 1010.0
20260507194713 15 186 8.0 12.9 0.00 0.00 0.00 55 1010.1
20260507194209 15 50 3.2 9.7 0.00 0.00 0.00 57 1010.4
20260507193706 15 204 4.8 12.9 0.00 0.00 0.00 57 1010.6
20260507193203 15 167 8.0 16.1 0.00 0.00 0.00 57 1010.5
20260507192658 15 171 6.4 16.1 0.00 0.00 0.00 56 1010.5
20260507192156 15 239 8.0 20.9 0.00 0.00 0.00 57 1010.8
20260507191651 14 178 6.4 24.1 0.00 0.00 0.00 58 1010.9
20260507191148 13 138 14.5 22.5 0.00 0.00 0.00 59 1010.8
20260507190645 13 163 8.0 24.1 0.00 0.00 0.00 57 1010.7
20260507190144 13 93 4.8 16.1 0.00 0.00 0.00 57 1011.1
20260507185642 13 285 9.7 22.5 0.00 0.00 0.00 57 1011.2
20260507185138 13 174 8.0 16.1 0.00 0.00 0.00 57 1011.2
20260507184636 15 139 3.2 20.9 0.00 0.00 0.00 56 1011.1
20260507184134 13 323 9.7 22.5 0.00 0.00 0.00 54 1011.1
20260507183630 15 236 8.0 20.9 0.00 0.00 0.00 51 1011.1
20260507183127 15 88 4.8 14.5 0.00 0.00 0.00 49 1011.3
20260507182624 15 247 9.7 20.9 0.00 0.00 0.00 48 1011.2
20260507182120 15 264 8.0 17.7 0.00 0.00 0.00 46 1011.2
20260507181616 15 269 4.8 12.9 0.00 0.00 0.00 46 1011.4
20260507181113 15 265 9.7 17.7 0.00 0.00 0.00 45 1011.3
20260507180609 15 162 3.2 14.5 0.00 0.00 0.00 48 1011.3
20260507180107 15 255 9.7 14.5 0.00 0.00 0.00 46 1011.3
20260507175602 15 263 4.8 14.5 0.00 0.00 0.00 48 1011.4
20260507175100 15 257 4.8 22.5 0.00 0.00 0.00 45 1011.6
20260507174557 15 264 11.3 17.7 0.00 0.00 0.00 41 1011.4
20260507174055 15 141 9.7 14.5 0.00 0.00 0.00 43 1011.8
20260507173552 15 245 8.0 14.5 0.00 0.00 0.00 43 1011.5
20260507173049 16 143 8.0 14.5 0.00 0.00 0.00 41 1011.8
20260507172544 15 176 4.8 9.7 0.00 0.00 0.00 43 1011.6
20260507172042 15 307 4.8 17.7 0.00 0.00 0.00 43 1012.1
20260507171537 15 111 3.2 4.8 0.00 0.00 0.00 46 1012.4
20260507171034 14 219 4.8 8.0 0.00 0.00 0.00 44 1012.3
20260507170531 14 223 4.8 9.7 0.00 0.00 0.00 45 1012.8
20260507170028 14 233 6.4 14.5 0.00 0.00 0.00 44 1012.5
20260507165524 14 291 6.4 9.7 0.00 0.00 0.00 44 1012.7
20260507165020 13 129 3.2 9.7 0.00 0.00 0.00 45 1012.7
20260507164517 13 182 3.2 11.3 0.00 0.00 0.00 46 1012.5
20260507164014 13 283 4.8 12.9 0.00 0.00 0.00 45 1012.7
20260507163511 14 166 6.4 9.7 0.00 0.00 0.00 44 1012.9
20260507163009 14 100 1.6 3.2 0.00 0.00 0.00 45 1012.9
20260507162503 14 321 4.8 9.7 0.00 0.00 0.00 43 1012.8
20260507162001 13 260 4.8 4.8 0.00 0.00 0.00 43 1013.1
20260507161456 13 197 4.8 11.3 0.00 0.00 0.00 42 1013.4
20260507160954 13 162 6.4 9.7 0.00 0.00 0.00 44 1013.5
20260507160449 13 126 4.8 14.5 0.00 0.00 0.00 44 1013.4
20260507155945 13 160 6.4 12.9 0.00 0.00 0.00 41 1013.5
20260507155442 13 191 4.8 8.0 0.00 0.00 0.00 44 1013.3
20260507154939 13 95 1.6 8.0 0.00 0.00 0.00 44 1013.7
20260507154435 13 261 4.8 14.5 0.00 0.00 0.00 44 1013.5
20260507153933 12 186 1.6 4.8 0.00 0.00 0.00 45 1013.4
20260507153429 12 207 6.4 8.0 0.00 0.00 0.00 47 1013.7
20260507152925 12 156 1.6 4.8 0.00 0.00 0.00 42 1013.8
20260507152422 12 103 0.0 4.8 0.00 0.00 0.00 45 1013.8
20260507151918 13 236 4.8 8.0 0.00 0.00 0.00 44 1014.0
20260507151415 12 100 0.0 4.8 0.00 0.00 0.00 44 1013.9
20260507150912 12 206 1.6 4.8 0.00 0.00 0.00 48 1014.1
20260507150408 12 112 1.6 3.2 0.00 0.00 0.00 49 1014.2
20260507145905 11 182 1.6 3.2 0.00 0.00 0.00 47 1014.2
20260507145401 11 26 1.6 4.8 0.00 0.00 0.00 46 1014.2
20260507144858 11 152 6.4 9.7 0.00 0.00 0.00 48 1014.5
20260507144355 11 114 3.2 4.8 0.00 0.00 0.00 49 1014.5
20260507143852 11 134 1.6 4.8 0.00 0.00 0.00 49 1014.5
20260507143349 11 204 4.8 9.7 0.00 0.00 0.00 51 1014.7
20260507142845 11 263 3.2 4.8 0.00 0.00 0.00 51 1014.8
20260507142341 10 225 3.2 4.8 0.00 0.00 0.00 52 1014.6
20260507141838 10 171 4.8 9.7 0.00 0.00 0.00 51 1014.7
20260507141335 10 147 6.4 9.7 0.00 0.00 0.00 50 1015.0
20260507140831 10 165 3.2 4.8 0.00 0.00 0.00 54 1014.9
20260507140328 10 186 3.2 4.8 0.00 0.00 0.00 52 1014.6
20260507135826 10 100 3.2 4.8 0.00 0.00 0.00 52 1014.8
20260507135323 8 163 4.8 9.7 0.00 0.00 0.00 53 1014.7
20260507134820 8 173 1.6 4.8 0.00 0.00 0.00 54 1014.8
20260507134316 8 98 0.0 1.6 0.00 0.00 0.00 57 1014.8
20260507133812 8 156 3.2 4.8 0.00 0.00 0.00 55 1015.1
20260507133308 8 174 4.8 8.0 0.00 0.00 0.00 55 1014.8
20260507132806 8 110 1.6 8.0 0.00 0.00 0.00 60 1014.9
20260507132306 7 142 1.6 3.2 0.00 0.00 0.00 59 1014.9
20260507131800 7 79 1.6 3.2 0.00 0.00 0.00 66 1014.8
20260507131256 7 95 1.6 1.6 0.00 0.00 0.00 70 1014.9
20260507130753 6 115 0.0 1.6 0.00 0.00 0.00 70 1014.9
20260507130251 6 190 1.6 3.2 0.00 0.00 0.00 72 1015.2
20260507125749 6 88 0.0 1.6 0.00 0.00 0.00 73 1015.2
20260507125247 5 46 1.6 3.2 0.00 0.00 0.00 73 1015.1
20260507124743 5 117 0.0 1.6 0.00 0.00 0.00 71 1015.0
20260507124240 5 101 0.0 0.0 0.00 0.00 0.00 74 1015.3
20260507123739 4 107 0.0 0.0 0.00 0.00 0.00 75 1015.1
20260507123236 4 147 0.0 0.0 0.00 0.00 0.00 77 1015.1
20260507122731 3 81 0.0 0.0 0.00 0.00 0.00 78 1015.2
20260507122227 3 98 0.0 0.0 0.00 0.00 0.00 79 1015.0
20260507121723 3 107 0.0 0.0 0.00 0.00 0.00 80 1014.6
20260507121219 2 102 0.0 0.0 0.00 0.00 0.00 83 1014.8
20260507120715 2 89 0.0 0.0 0.00 0.00 0.00 87 1014.7
20260507120212 2 97 0.0 0.0 0.00 0.00 0.00 89 1014.7
20260507115708 2 96 0.0 0.0 0.00 0.00 0.00 89 1014.6
20260507115204 2 95 0.0 0.0 0.00 0.00 0.00 89 1014.6
20260507114700 2 98 0.0 0.0 0.00 0.00 0.00 90 1014.9
20260507114157 1 97 0.0 0.0 0.00 0.00 0.00 92 1014.6
20260507113655 1 98 0.0 0.0 0.00 0.00 0.00 93 1014.8
20260507113151 0 97 0.0 0.0 0.00 0.00 0.00 95 1014.7
20260507112649 0 99 0.0 0.0 0.00 0.00 0.00 95 1014.7
20260507112145 0 97 0.0 0.0 0.00 0.00 0.00 95 1014.8
20260507111643 0 97 0.0 0.0 0.00 0.00 0.00 95 1014.6
20260507111139 0 97 0.0 0.0 0.00 0.00 0.00 94 1014.6
20260507110636 0 97 0.0 0.0 0.00 0.00 0.00 94 1014.8
20260507110133 0 98 0.0 0.0 0.00 0.00 0.00 94 1014.7
20260507105630 0 98 0.0 0.0 0.00 0.00 0.00 94 1014.6
20260507105125 0 99 0.0 0.0 0.00 0.00 0.00 94 1014.7
20260507104623 0 99 0.0 0.0 0.00 0.00 0.00 93 1014.7
20260507104119 0 99 0.0 0.0 0.00 0.00 0.00 93 1014.7
20260507103615 0 99 0.0 0.0 0.00 0.00 0.00 94 1014.5
20260507103112 0 97 0.0 0.0 0.00 0.00 0.00 94 1014.8
20260507102609 0 96 0.0 0.0 0.00 0.00 0.00 94 1014.7
20260507102105 0 93 0.0 0.0 0.00 0.00 0.00 94 1014.6
20260507101601 0 91 0.0 0.0 0.00 0.00 0.00 94 1014.8
20260507101057 0 97 0.0 0.0 0.00 0.00 0.00 94 1014.8
20260507100554 0 99 0.0 0.0 0.00 0.00 0.00 94 1014.6
20260507100053 0 97 0.0 0.0 0.00 0.00 0.00 94 1014.5
20260507095550 0 97 0.0 0.0 0.00 0.00 0.00 94 1014.7
20260507095047 0 97 0.0 0.0 0.00 0.00 0.00 94 1014.4
20260507094543 0 99 0.0 0.0 0.00 0.00 0.00 94 1014.9
20260507094040 0 100 0.0 0.0 0.00 0.00 0.00 94 1014.8
20260507093537 0 102 0.0 0.0 0.00 0.00 0.00 94 1014.8
20260507093036 0 99 0.0 0.0 0.00 0.00 0.00 94 1014.7
20260507092532 0 99 0.0 0.0 0.00 0.00 0.00 94 1014.7
20260507092029 0 99 0.0 0.0 0.00 0.00 0.00 94 1014.8
20260507091526 0 102 0.0 0.0 0.00 0.00 0.00 94 1014.6
20260507091022 0 102 0.0 0.0 0.00 0.00 0.00 94 1014.6
20260507090517 0 100 0.0 0.0 0.00 0.00 0.00 94 1014.8
20260507090015 0 98 0.0 0.0 0.00 0.00 0.00 94 1014.8
20260507085512 0 101 0.0 0.0 0.00 0.00 0.00 94 1014.9
20260507085008 0 101 0.0 0.0 0.00 0.00 0.00 94 1014.8
20260507084505 0 100 0.0 0.0 0.00 0.00 0.00 94 1014.9
20260507084002 0 99 0.0 0.0 0.00 0.00 0.00 94 1014.6
20260507083458 0 99 0.0 0.0 0.00 0.00 0.00 94 1014.7
20260507082955 0 99 0.0 0.0 0.00 0.00 0.00 94 1014.6
20260507082451 0 97 0.0 0.0 0.00 0.00 0.00 94 1014.6
20260507081948 0 97 0.0 0.0 0.00 0.00 0.00 94 1014.7
20260507081444 0 98 0.0 0.0 0.00 0.00 0.00 94 1014.6
20260507080941 0 97 0.0 0.0 0.00 0.00 0.00 94 1014.6
20260507080437 0 95 0.0 0.0 0.00 0.00 0.00 94 1014.7
20260507075932 0 95 0.0 0.0 0.00 0.00 0.00 94 1014.7
20260507075429 0 95 0.0 0.0 0.00 0.00 0.00 94 1014.7
20260507074926 0 97 0.0 0.0 0.00 0.00 0.00 93 1014.8
20260507074422 0 97 0.0 0.0 0.00 0.00 0.00 93 1014.8
20260507073920 0 98 0.0 0.0 0.00 0.00 0.00 93 1014.7
20260507073416 0 98 0.0 0.0 0.00 0.00 0.00 94 1014.7
20260507072913 0 97 0.0 0.0 0.00 0.00 0.00 94 1015.0
20260507072411 0 97 0.0 0.0 0.00 0.00 0.00 94 1014.8
20260507071908 0 97 0.0 0.0 0.00 0.00 0.00 93 1014.8
20260507071405 0 97 0.0 0.0 0.00 0.00 0.00 93 1014.9
20260507070901 0 97 0.0 0.0 0.00 0.00 0.00 93 1014.9
20260507070359 1 98 0.0 0.0 0.00 0.00 0.00 93 1015.0
20260507065856 1 100 0.0 0.0 0.00 0.00 0.00 93 1015.1
20260507065352 1 101 0.0 0.0 0.00 0.00 0.00 93 1015.4
20260507064849 1 99 0.0 0.0 0.00 0.00 0.00 92 1015.2
20260507064348 1 99 0.0 0.0 0.00 0.00 0.00 92 1015.0
20260507063845 1 99 0.0 0.0 0.00 0.00 0.00 91 1014.9
20260507063342 1 99 0.0 0.0 0.00 0.00 0.00 91 1015.2
20260507062839 1 98 0.0 0.0 0.00 0.00 0.00 91 1014.8
20260507062336 1 97 0.0 0.0 0.00 0.00 0.00 90 1015.1
20260507061834 1 98 0.0 0.0 0.00 0.00 0.00 90 1015.2
20260507061331 1 98 0.0 0.0 0.00 0.00 0.00 89 1015.3
20260507060830 1 98 0.0 0.0 0.00 0.00 0.00 89 1015.2
20260507060326 1 98 0.0 0.0 0.00 0.00 0.00 89 1015.2
20260507055823 1 97 0.0 0.0 0.00 0.00 0.00 88 1015.1
20260507055318 1 97 0.0 0.0 0.00 0.00 0.00 87 1015.2
20260507054815 1 98 0.0 0.0 0.00 0.00 0.00 86 1015.3
20260507054311 1 100 0.0 0.0 0.00 0.00 0.00 87 1015.5
20260507053808 1 100 0.0 0.0 0.00 0.00 0.00 86 1015.2
20260507053306 1 99 0.0 0.0 0.00 0.00 0.00 85 1015.1
20260507052805 1 99 0.0 0.0 0.00 0.00 0.00 85 1015.2
20260507052301 1 100 0.0 0.0 0.00 0.00 0.00 85 1015.1
20260507051759 2 100 0.0 0.0 0.00 0.00 0.00 85 1015.1
20260507051256 2 100 0.0 0.0 0.00 0.00 0.00 85 1015.0
20260507050753 2 102 0.0 0.0 0.00 0.00 0.00 85 1015.3
20260507050249 2 102 0.0 0.0 0.00 0.00 0.00 85 1015.4
20260507045746 2 99 0.0 0.0 0.00 0.00 0.00 85 1015.2
20260507045242 2 97 0.0 0.0 0.00 0.00 0.00 85 1015.1
20260507044740 2 97 0.0 0.0 0.00 0.00 0.00 84 1015.2
20260507044236 2 98 0.0 0.0 0.00 0.00 0.00 83 1015.1
20260507043732 2 97 0.0 0.0 0.00 0.00 0.00 84 1015.2
20260507043229 2 97 0.0 0.0 0.00 0.00 0.00 83 1015.1
20260507042725 2 97 0.0 0.0 0.00 0.00 0.00 80 1014.9
20260507042220 2 99 0.0 0.0 0.00 0.00 0.00 79 1015.1
20260507041718 2 99 0.0 0.0 0.00 0.00 0.00 78 1015.1
20260507041215 2 99 0.0 0.0 0.00 0.00 0.00 77 1015.3
20260507040712 3 99 0.0 0.0 0.00 0.00 0.00 75 1015.0
20260507040207 3 99 0.0 0.0 0.00 0.00 0.00 74 1015.3
20260507035704 3 99 0.0 0.0 0.00 0.00 0.00 73 1015.2
20260507035159 3 101 0.0 0.0 0.00 0.00 0.00 71 1015.2
20260507034656 3 100 0.0 0.0 0.00 0.00 0.00 71 1015.1
20260507034154 3 100 0.0 0.0 0.00 0.00 0.00 71 1015.1
20260507033652 4 100 0.0 0.0 0.00 0.00 0.00 70 1014.9
20260507033149 4 99 0.0 0.0 0.00 0.00 0.00 69 1015.2
20260507032647 4 99 0.0 0.0 0.00 0.00 0.00 70 1015.3
20260507032142 4 96 0.0 0.0 0.00 0.00 0.00 69 1015.3
20260507031639 4 99 0.0 0.0 0.00 0.00 0.00 68 1015.3
20260507031136 4 99 0.0 0.0 0.00 0.00 0.00 68 1015.2
20260507030633 5 99 0.0 0.0 0.00 0.00 0.00 67 1015.2
20260507030131 5 99 0.0 0.0 0.00 0.00 0.00 66 1015.2
20260507025627 5 99 0.0 0.0 0.00 0.00 0.00 65 1015.0
20260507025124 5 99 0.0 0.0 0.00 0.00 0.00 65 1015.2
20260507024622 5 99 0.0 0.0 0.00 0.00 0.00 65 1014.9
20260507024119 5 105 0.0 0.0 0.00 0.00 0.00 65 1015.1
20260507023615 5 105 0.0 0.0 0.00 0.00 0.00 64 1014.9
20260507023112 5 99 0.0 0.0 0.00 0.00 0.00 64 1014.9
20260507022609 5 111 0.0 0.0 0.00 0.00 0.00 65 1014.9
20260507022105 5 95 0.0 0.0 0.00 0.00 0.00 64 1015.0
20260507021601 5 95 0.0 0.0 0.00 0.00 0.00 64 1014.6
20260507021057 6 93 0.0 0.0 0.00 0.00 0.00 64 1014.7
20260507020556 6 89 0.0 0.0 0.00 0.00 0.00 64 1014.6
20260507020051 6 98 0.0 0.0 0.00 0.00 0.00 62 1014.4
20260507015550 7 90 0.0 0.0 0.00 0.00 0.00 60 1014.6
20260507015047 7 84 0.0 1.6 0.00 0.00 0.00 59 1014.4
20260507014543 7 70 0.0 1.6 0.00 0.00 0.00 57 1014.3
20260507014039 7 66 1.6 1.6 0.00 0.00 0.00 55 1014.4
20260507013536 7 84 1.6 1.6 0.00 0.00 0.00 55 1014.4
20260507013034 8 108 0.0 3.2 0.00 0.00 0.00 53 1014.4
20260507012531 8 50 3.2 3.2 0.00 0.00 0.00 55 1014.3
20260507012026 8 69 3.2 4.8 0.00 0.00 0.00 53 1014.1
20260507011524 8 338 4.8 8.0 0.00 0.00 0.00 52 1014.4
20260507011020 8 154 1.6 4.8 0.00 0.00 0.00 53 1014.6
20260507010515 8 115 3.2 4.8 0.00 0.00 0.00 53 1014.4
20260507010012 8 69 3.2 4.8 0.00 0.00 0.00 52 1014.3
20260507005509 8 242 4.8 9.7 0.00 0.00 0.00 52 1014.1
20260507005005 8 63 4.8 8.0 0.00 0.00 0.00 51 1014.3
20260507004502 8 296 1.6 3.2 0.00 0.00 0.00 52 1014.2
20260507004000 9 112 1.6 3.2 0.00 0.00 0.00 51 1014.1
20260507003455 9 359 4.8 9.7 0.00 0.00 0.00 48 1014.1
20260507002950 9 258 6.4 8.0 0.00 0.00 0.00 50 1014.1
20260507002447 10 334 8.0 11.3 0.00 0.00 0.00 47 1014.0
20260507001944 10 314 4.8 9.7 0.00 0.00 0.00 48 1014.2
20260507001440 10 81 4.8 16.1 0.00 0.00 0.00 48 1013.9
20260507000938 10 0 6.4 11.3 0.00 0.00 0.00 48 1013.9
20260507000435 10 11 6.4 11.3 0.00 0.00 0.00 48 1013.8
20260506235929 10 7 4.8 12.9 0.00 0.00 0.00 49 1013.9
20260506235427 10 337 6.4 9.7 0.00 0.00 0.00 49 1013.8
20260506234921 10 262 4.8 9.7 0.00 0.00 0.00 48 1013.8
20260506234420 10 273 6.4 9.7 0.00 0.00 0.00 48 1013.8
20260506233917 11 41 4.8 16.1 0.00 0.00 0.00 47 1013.7
20260506233414 11 18 6.4 12.9 0.00 0.00 0.00 51 1013.5
20260506232910 11 270 4.8 8.0 0.00 0.00 0.00 49 1013.6
20260506232406 11 288 4.8 9.7 0.00 0.00 0.00 48 1013.3
20260506231902 11 339 3.2 3.2 0.00 0.00 0.00 49 1013.5
20260506231400 11 189 4.8 8.0 0.00 0.00 0.00 48 1013.5
20260506230857 11 261 4.8 11.3 0.00 0.00 0.00 48 1013.5
20260506230354 11 275 6.4 9.7 0.00 0.00 0.00 47 1013.6
20260506225850 11 264 6.4 8.0 0.00 0.00 0.00 47 1013.2
20260506225348 11 78 3.2 11.3 0.00 0.00 0.00 48 1013.1
20260506224844 11 63 4.8 16.1 0.00 0.00 0.00 46 1013.1
20260506224342 11 273 3.2 4.8 0.00 0.00 0.00 50 1013.5
20260506223838 11 269 11.3 12.9 0.00 0.00 0.00 47 1013.3
20260506223333 11 52 4.8 4.8 0.00 0.00 0.00 49 1013.0
20260506222830 11 59 1.6 11.3 0.00 0.00 0.00 48 1012.9
20260506222326 11 359 8.0 11.3 0.00 0.00 0.00 46 1013.1
20260506221819 11 299 8.0 9.7 0.00 0.00 0.00 47 1013.1
20260506221316 12 7 8.0 12.9 0.00 0.00 0.00 48 1013.1
20260506220813 12 170 1.6 12.9 0.00 0.00 0.00 46 1013.3
20260506220308 12 352 4.8 8.0 0.00 0.00 0.00 44 1012.7
20260506215805 12 11 8.0 20.9 0.00 0.00 0.00 45 1012.9
20260506215301 12 342 3.2 11.3 0.00 0.00 0.00 45 1012.9
20260506214757 12 284 6.4 9.7 0.00 0.00 0.00 46 1013.0
20260506214254 13 277 6.4 9.7 0.00 0.00 0.00 44 1013.0
20260506213752 13 355 9.7 12.9 0.00 0.00 0.00 44 1012.8
20260506213249 13 356 6.4 9.7 0.00 0.00 0.00 45 1012.8
20260506212746 13 268 4.8 8.0 0.00 0.00 0.00 46 1012.8
20260506212242 13 335 4.8 9.7 0.00 0.00 0.00 43 1012.7
20260506211737 13 276 6.4 9.7 0.00 0.00 0.00 44 1012.9
20260506211234 13 315 9.7 11.3 0.00 0.00 0.00 46 1012.6
20260506210731 12 357 3.2 8.0 0.00 0.00 0.00 49 1012.8
20260506210228 13 244 4.8 12.9 0.00 0.00 0.00 46 1012.7
20260506205725 14 91 3.2 9.7 0.00 0.00 0.00 45 1012.7
20260506205220 15 266 1.6 12.9 0.00 0.00 0.00 46 1012.6
20260506204718 15 145 11.3 14.5 0.00 0.00 0.00 40 1012.9
20260506204215 14 329 6.4 9.7 0.00 0.00 0.00 42 1012.7
20260506203713 13 269 6.4 9.7 0.00 0.00 0.00 42 1012.8
20260506203210 13 308 4.8 9.7 0.00 0.00 0.00 46 1012.8
20260506202707 14 271 3.2 8.0 0.00 0.00 0.00 46 1012.8
20260506202203 14 107 8.0 12.9 0.00 0.00 0.00 40 1013.0
20260506201701 13 123 4.8 8.0 0.00 0.00 0.00 39 1012.7
20260506201156 13 205 6.4 14.5 0.00 0.00 0.00 38 1013.0
20260506200654 13 163 1.6 3.2 0.00 0.00 0.00 44 1013.0
20260506200150 14 6 1.6 4.8 0.00 0.00 0.00 41 1013.1